Orbital Elements at Epoch 2459200.5 (2020-Dec-17.0) TDB
Reference: JPL 33 (heliocentric ecliptic J2000)
Element | Value | Uncertainty (1-sigma) | Units |
e | .1565332967742625 | 2.5307e-08 | |
a | 2.884683431396489 | 1.3259e-08 | au |
q | 2.433134423729904 | 7.8495e-08 | au |
i | 5.816526380021197 | 1.2697e-06 | deg |
node | 183.1098076763428 | 7.3142e-06 | deg |
peri | 155.112187603822 | 6.8678e-06 | deg |
M | 284.5154885010018 | 5.8521e-06 | deg |
tp | 2459575.732990963085 (2021-Dec-27.23299096) | 3.0456e-05 | TDB |
period | 1789.557540536025 4.90 | 1.2338e-05 3.378e-08 | d yr |
n | .2011670437219746 | 1.3869e-09 | deg/d |
Q | 3.336232439063073 | 1.5334e-08 | au |
|
| | Orbit Determination Parameters
Additional Information
|